CCA4580 ZPPP-ZUCK

Flight info

Callsign CCA4580
Flight time 0h 54m
Altitude 37100
Route NOD9X NODIB W137 LPS A581 AGTIS W3 ASIPO W678 SEGDA
Aircraft A346/H-SDE2E3FGHIJ3J4J5M1RWXY/LB1D1

Departure

Time 2026-04-24 19:39
Airport Kunming Changshui International Airport (ZPPP)

Arrival

Time 2026-04-24 20:33
Airport Chongqing Jiangbei International Airport (ZUCK)
Time Latitude Longitude Altitude Speed Heading
2026-04-24 18:58 25.10369 102.93504 6918 ft 0 kts 256°
2026-04-24 19:27 25.10371 102.93513 6918 ft 2 kts 256°
2026-04-24 19:27 25.10374 102.93529 6918 ft 2 kts 256°
2026-04-24 19:28 25.10376 102.93540 6918 ft 2 kts 256°
2026-04-24 19:28 25.10382 102.93556 6918 ft 2 kts 237°
2026-04-24 19:28 25.10392 102.93568 6918 ft 2 kts 216°
2026-04-24 19:28 25.10405 102.93576 6918 ft 2 kts 198°
2026-04-24 19:29 25.10434 102.93577 6918 ft 2 kts 160°
2026-04-24 19:29 25.10448 102.93569 6918 ft 2 kts 142°
2026-04-24 19:29 25.10458 102.93558 6918 ft 1 kts 124°
2026-04-24 19:30 25.10460 102.93554 6918 ft 0 kts 122°
2026-04-24 19:33 25.10457 102.93560 6918 ft 2 kts 124°
2026-04-24 19:33 25.10444 102.93579 6918 ft 4 kts 127°
2026-04-24 19:33 25.10424 102.93609 6918 ft 5 kts 127°
2026-04-24 19:33 25.10394 102.93651 6918 ft 7 kts 127°
2026-04-24 19:34 25.10356 102.93702 6918 ft 9 kts 129°
2026-04-24 19:34 25.10312 102.93761 6918 ft 10 kts 129°
2026-04-24 19:34 25.10263 102.93830 6918 ft 11 kts 128°
2026-04-24 19:34 25.10209 102.93906 6918 ft 12 kts 128°
2026-04-24 19:35 25.10151 102.93988 6918 ft 13 kts 128°
2026-04-24 19:35 25.10089 102.94070 6918 ft 14 kts 130°
2026-04-24 19:35 25.10027 102.94151 6918 ft 12 kts 132°
2026-04-24 19:35 25.09952 102.94159 6918 ft 12 kts 207°
2026-04-24 19:36 25.09879 102.94104 6918 ft 12 kts 219°
2026-04-24 19:36 25.09808 102.94040 6918 ft 13 kts 219°
2026-04-24 19:36 25.09733 102.93973 6918 ft 14 kts 219°
2026-04-24 19:36 25.09654 102.93903 6918 ft 14 kts 219°
2026-04-24 19:37 25.09574 102.93832 6918 ft 14 kts 219°
2026-04-24 19:37 25.09491 102.93760 6918 ft 15 kts 217°
2026-04-24 19:37 25.09411 102.93695 6918 ft 11 kts 204°
2026-04-24 19:37 25.09336 102.93713 6918 ft 11 kts 144°
2026-04-24 19:38 25.09284 102.93781 6918 ft 9 kts 114°
2026-04-24 19:38 25.09310 102.93840 6918 ft 22 kts 45°
2026-04-24 19:38 25.09651 102.94152 6918 ft 104 kts 38°
2026-04-24 19:38 25.10409 102.94813 6918 ft 171 kts 38°
2026-04-24 19:39 25.11494 102.95763 7098 ft 213 kts 38°
2026-04-24 19:39 25.12586 102.96855 7873 ft 219 kts 46°
2026-04-24 19:39 25.13559 102.98165 8784 ft 225 kts 57°
2026-04-24 19:39 25.14374 102.99649 9664 ft 231 kts 61°
2026-04-24 19:40 25.15270 103.01183 10294 ft 249 kts 57°
2026-04-24 19:40 25.16274 103.02799 10778 ft 265 kts 57°
2026-04-24 19:40 25.17366 103.04559 11155 ft 286 kts 56°
2026-04-24 19:40 25.18513 103.06413 11597 ft 305 kts 56°
2026-04-24 19:41 25.19746 103.08402 12052 ft 324 kts 56°
2026-04-24 19:41 25.21056 103.10514 12498 ft 342 kts 56°
2026-04-24 19:41 25.22448 103.12758 12933 ft 361 kts 56°
2026-04-24 19:41 25.23904 103.15107 13346 ft 379 kts 56°
2026-04-24 19:42 25.25401 103.17528 13949 ft 391 kts 55°
2026-04-24 19:42 25.26949 103.20031 14772 ft 396 kts 55°
2026-04-24 19:42 25.28502 103.22544 15590 ft 400 kts 55°
2026-04-24 19:42 25.30078 103.25096 16359 ft 405 kts 55°
2026-04-24 19:43 25.31665 103.27670 17108 ft 410 kts 55°
2026-04-24 19:43 25.33278 103.30286 17848 ft 415 kts 55°
2026-04-24 19:43 25.34929 103.32965 18579 ft 420 kts 55°
2026-04-24 19:43 25.36580 103.35647 19283 ft 425 kts 55°
2026-04-24 19:44 25.38236 103.38338 19964 ft 430 kts 55°
2026-04-24 19:44 25.39919 103.41074 20623 ft 435 kts 55°
2026-04-24 19:44 25.41638 103.43871 21259 ft 440 kts 55°
2026-04-24 19:44 25.43371 103.46693 21897 ft 445 kts 55°
2026-04-24 19:45 25.45112 103.49529 22523 ft 449 kts 55°
2026-04-24 19:45 25.46877 103.52406 23137 ft 454 kts 55°
2026-04-24 19:45 25.48635 103.55274 23734 ft 458 kts 55°
2026-04-24 19:45 25.50428 103.58199 24315 ft 462 kts 55°
2026-04-24 19:46 25.52254 103.61182 24890 ft 466 kts 55°
2026-04-24 19:46 25.54056 103.64125 25442 ft 471 kts 55°
2026-04-24 19:46 25.55906 103.67151 25988 ft 475 kts 55°
2026-04-24 19:46 25.57758 103.70180 26514 ft 479 kts 55°
2026-04-24 19:47 25.59624 103.73236 27030 ft 482 kts 55°
2026-04-24 19:47 25.61514 103.76332 27535 ft 486 kts 55°
2026-04-24 19:47 25.63425 103.79466 28073 ft 489 kts 55°
2026-04-24 19:47 25.65320 103.82577 28681 ft 490 kts 55°
2026-04-24 19:48 25.67236 103.85723 29300 ft 490 kts 55°
2026-04-24 19:48 25.69130 103.88836 30002 ft 488 kts 55°
2026-04-24 19:48 25.72889 103.95023 31321 ft 484 kts 54°
2026-04-24 19:49 25.76647 104.01215 32517 ft 483 kts 54°
2026-04-24 19:49 25.80361 104.07353 33648 ft 481 kts 55°
2026-04-24 19:50 25.85825 104.16644 35271 ft 477 kts 55°
2026-04-24 19:50 25.87611 104.19695 35777 ft 476 kts 55°
2026-04-24 19:51 25.91221 104.25857 36560 ft 477 kts 55°
2026-04-24 19:51 25.93041 104.28966 36865 ft 479 kts 55°
2026-04-24 19:52 25.96694 104.35211 37399 ft 484 kts 55°
2026-04-24 19:52 25.98542 104.38340 37430 ft 485 kts 54°
2026-04-24 19:52 26.02609 104.44275 37433 ft 484 kts 47°
2026-04-24 19:53 26.07280 104.49686 37433 ft 482 kts 40°
2026-04-24 19:54 26.14941 104.56908 37434 ft 481 kts 37°
2026-04-24 19:54 26.20077 104.61647 37434 ft 481 kts 37°
2026-04-24 19:55 26.24378 104.65636 37433 ft 481 kts 38°
2026-04-24 19:55 26.30368 104.71211 37423 ft 481 kts 38°
2026-04-24 19:56 26.35486 104.75983 37402 ft 481 kts 38°
2026-04-24 19:56 26.40636 104.80791 37373 ft 481 kts 38°
2026-04-24 19:57 26.45858 104.85462 37332 ft 479 kts 30°
2026-04-24 19:57 26.51695 104.88914 37304 ft 477 kts 23°
2026-04-24 19:58 26.57634 104.92186 37284 ft 477 kts 24°
2026-04-24 19:58 26.63529 104.95477 37277 ft 476 kts 24°
2026-04-24 19:59 26.69436 104.98803 37274 ft 476 kts 24°
2026-04-24 19:59 26.75332 105.02133 37273 ft 475 kts 24°
2026-04-24 20:00 26.81197 105.05455 37273 ft 474 kts 24°
2026-04-24 20:00 26.87101 105.08806 37273 ft 474 kts 24°
2026-04-24 20:01 26.92955 105.12133 37272 ft 474 kts 23°
2026-04-24 20:01 26.98842 105.15482 37272 ft 476 kts 23°
2026-04-24 20:02 27.03745 105.18272 37272 ft 478 kts 23°
2026-04-24 20:02 27.10656 105.22203 37272 ft 479 kts 23°
2026-04-24 20:03 27.16600 105.25591 37273 ft 479 kts 23°
2026-04-24 20:03 27.22511 105.28965 37273 ft 479 kts 23°
2026-04-24 20:04 27.28448 105.32362 37273 ft 478 kts 23°
2026-04-24 20:04 27.34335 105.35732 37055 ft 478 kts 23°
2026-04-24 20:04 27.37290 105.37426 36806 ft 476 kts 23°
2026-04-24 20:05 27.40208 105.39099 36559 ft 473 kts 23°
2026-04-24 20:05 27.43142 105.40783 36307 ft 470 kts 23°
2026-04-24 20:05 27.46023 105.42438 36061 ft 468 kts 23°
2026-04-24 20:05 27.48934 105.44109 35812 ft 468 kts 23°
2026-04-24 20:06 27.51815 105.45764 35564 ft 468 kts 23°
2026-04-24 20:06 27.54725 105.47437 35313 ft 469 kts 23°
2026-04-24 20:06 27.57620 105.49101 35017 ft 469 kts 23°
2026-04-24 20:06 27.60481 105.50747 34635 ft 470 kts 23°
2026-04-24 20:07 27.62425 105.51865 34312 ft 471 kts 23°
2026-04-24 20:07 27.66297 105.54089 33568 ft 472 kts 23°
2026-04-24 20:07 27.69260 105.55794 32951 ft 474 kts 23°
2026-04-24 20:07 27.72169 105.57470 32334 ft 476 kts 23°
2026-04-24 20:08 27.75104 105.59163 31686 ft 478 kts 23°
2026-04-24 20:08 27.78056 105.60867 31026 ft 480 kts 23°
2026-04-24 20:08 27.81023 105.62580 30349 ft 482 kts 24°
2026-04-24 20:08 27.83984 105.64293 29677 ft 484 kts 24°
2026-04-24 20:09 27.87020 105.66050 28988 ft 485 kts 24°
2026-04-24 20:09 27.90013 105.67783 28303 ft 486 kts 24°
2026-04-24 20:09 27.92968 105.69497 27879 ft 481 kts 24°
2026-04-24 20:09 27.95923 105.71214 27444 ft 476 kts 25°
2026-04-24 20:10 27.98852 105.72914 26940 ft 473 kts 25°
2026-04-24 20:10 28.01771 105.74610 26476 ft 470 kts 25°
2026-04-24 20:10 28.04678 105.76300 26022 ft 466 kts 25°
2026-04-24 20:10 28.07542 105.77966 25585 ft 462 kts 25°
2026-04-24 20:11 28.10351 105.79600 25151 ft 458 kts 25°
2026-04-24 20:11 28.13180 105.81248 24706 ft 455 kts 25°
2026-04-24 20:11 28.15999 105.82890 24253 ft 451 kts 25°
2026-04-24 20:11 28.18744 105.84490 23811 ft 448 kts 25°
2026-04-24 20:12 28.21495 105.86095 23378 ft 445 kts 25°
2026-04-24 20:12 28.24249 105.87702 22949 ft 441 kts 25°
2026-04-24 20:12 28.26950 105.89279 22524 ft 438 kts 25°
2026-04-24 20:12 28.29645 105.90854 22099 ft 435 kts 25°
2026-04-24 20:13 28.32313 105.92414 21681 ft 432 kts 25°
2026-04-24 20:13 28.35002 105.93986 21253 ft 429 kts 25°
2026-04-24 20:13 28.37625 105.95521 20841 ft 425 kts 25°
2026-04-24 20:13 28.40243 105.97054 20424 ft 423 kts 25°
2026-04-24 20:14 28.42819 105.98563 20015 ft 420 kts 25°
2026-04-24 20:14 28.45420 106.00088 19601 ft 417 kts 25°
2026-04-24 20:14 28.47972 106.01585 19194 ft 414 kts 26°
2026-04-24 20:14 28.50507 106.03073 18785 ft 411 kts 26°
2026-04-24 20:15 28.53047 106.04565 18374 ft 408 kts 26°
2026-04-24 20:15 28.55557 106.06039 17965 ft 406 kts 26°
2026-04-24 20:15 28.58046 106.07503 17555 ft 403 kts 26°
2026-04-24 20:15 28.60512 106.08952 17152 ft 401 kts 26°
2026-04-24 20:16 28.62967 106.10397 16747 ft 398 kts 26°
2026-04-24 20:16 28.65417 106.11839 16342 ft 396 kts 26°
2026-04-24 20:16 28.67876 106.13288 15934 ft 394 kts 26°
2026-04-24 20:16 28.70286 106.14708 15530 ft 391 kts 26°
2026-04-24 20:17 28.72685 106.16122 15125 ft 389 kts 26°
2026-04-24 20:17 28.77463 106.18941 14315 ft 385 kts 26°
2026-04-24 20:17 28.79828 106.20338 13911 ft 382 kts 26°
2026-04-24 20:18 28.81377 106.21253 13645 ft 381 kts 26°
2026-04-24 20:18 28.84505 106.23103 13106 ft 377 kts 26°
2026-04-24 20:18 28.86815 106.24470 12705 ft 375 kts 26°
2026-04-24 20:18 28.89106 106.25826 12306 ft 372 kts 26°
2026-04-24 20:19 28.91400 106.27183 11903 ft 370 kts 26°
2026-04-24 20:19 28.93680 106.28535 11502 ft 367 kts 26°
2026-04-24 20:19 28.95924 106.29866 11106 ft 364 kts 26°
2026-04-24 20:19 28.98173 106.31200 10733 ft 360 kts 26°
2026-04-24 20:20 29.00357 106.32496 10422 ft 353 kts 26°
2026-04-24 20:20 29.02497 106.33766 10264 ft 341 kts 26°
2026-04-24 20:20 29.04557 106.34990 10208 ft 327 kts 26°
2026-04-24 20:20 29.06529 106.36163 10157 ft 313 kts 26°
2026-04-24 20:21 29.08421 106.37287 10109 ft 299 kts 26°
2026-04-24 20:21 29.10226 106.38361 10071 ft 287 kts 27°
2026-04-24 20:21 29.11980 106.39405 10042 ft 280 kts 27°
2026-04-24 20:21 29.13684 106.40419 9939 ft 279 kts 27°
2026-04-24 20:22 29.15417 106.41451 9590 ft 280 kts 26°
2026-04-24 20:22 29.17126 106.42470 9265 ft 279 kts 26°
2026-04-24 20:22 29.18848 106.43495 8961 ft 278 kts 26°
2026-04-24 20:22 29.20565 106.44519 8665 ft 276 kts 26°
2026-04-24 20:23 29.22257 106.45528 8376 ft 274 kts 26°
2026-04-24 20:23 29.23940 106.46532 8089 ft 273 kts 26°
2026-04-24 20:23 29.25604 106.47525 7806 ft 271 kts 26°
2026-04-24 20:23 29.27286 106.48529 7519 ft 270 kts 26°
2026-04-24 20:24 29.28939 106.49516 7236 ft 268 kts 26°
2026-04-24 20:24 29.30589 106.50502 6972 ft 266 kts 26°
2026-04-24 20:24 29.32205 106.51468 6754 ft 260 kts 26°
2026-04-24 20:24 29.33798 106.52421 6552 ft 254 kts 26°
2026-04-24 20:25 29.35319 106.53331 6451 ft 244 kts 26°
2026-04-24 20:25 29.36791 106.54211 6415 ft 231 kts 26°
2026-04-24 20:25 29.38176 106.54994 6401 ft 212 kts 22°
2026-04-24 20:25 29.39495 106.55563 6252 ft 201 kts 16°
2026-04-24 20:26 29.40819 106.56029 5993 ft 198 kts 15°
2026-04-24 20:26 29.42135 106.56475 5758 ft 197 kts 15°
2026-04-24 20:26 29.43434 106.56915 5534 ft 196 kts 15°
2026-04-24 20:26 29.44743 106.57360 5311 ft 195 kts 15°
2026-04-24 20:27 29.46047 106.57806 5089 ft 194 kts 15°
2026-04-24 20:27 29.47338 106.58247 4918 ft 193 kts 15°
2026-04-24 20:27 29.48617 106.58678 4904 ft 193 kts 15°
2026-04-24 20:27 29.49912 106.59113 4900 ft 193 kts 15°
2026-04-24 20:28 29.51207 106.59536 4901 ft 194 kts 14°
2026-04-24 20:28 29.52502 106.59962 4901 ft 194 kts 15°
2026-04-24 20:28 29.53795 106.60397 4901 ft 194 kts 15°
2026-04-24 20:28 29.55078 106.60838 4808 ft 194 kts 15°
2026-04-24 20:29 29.55935 106.61137 4644 ft 193 kts 15°
2026-04-24 20:29 29.57656 106.61740 4304 ft 192 kts 16°
2026-04-24 20:29 29.58923 106.62184 4055 ft 191 kts 16°
2026-04-24 20:29 29.60170 106.62622 3797 ft 184 kts 16°
2026-04-24 20:30 29.61365 106.63040 3552 ft 175 kts 16°
2026-04-24 20:30 29.62498 106.63437 3321 ft 167 kts 16°
2026-04-24 20:30 29.63604 106.63824 3113 ft 167 kts 16°
2026-04-24 20:30 29.64689 106.64203 2897 ft 160 kts 16°
2026-04-24 20:31 29.65752 106.64574 2686 ft 157 kts 16°
2026-04-24 20:31 29.66788 106.64935 2485 ft 157 kts 16°
2026-04-24 20:31 29.67829 106.65299 2276 ft 156 kts 16°
2026-04-24 20:31 29.68864 106.65660 2065 ft 156 kts 16°
2026-04-24 20:32 29.69902 106.66022 1850 ft 155 kts 16°
2026-04-24 20:32 29.70928 106.66383 1648 ft 155 kts 17°
2026-04-24 20:32 29.71953 106.66748 1446 ft 154 kts 16°
2026-04-24 20:32 29.72895 106.67060 1379 ft 119 kts 17°
2026-04-24 20:33 29.73512 106.67274 1379 ft 66 kts
2026-04-24 20:33 29.73824 106.67239 1379 ft 28 kts 351°
2026-04-24 20:33 29.73953 106.67207 1379 ft 14 kts 325°
2026-04-24 20:33 29.74000 106.67098 1379 ft 16 kts 288°
2026-04-24 20:34 29.74035 106.66970 1379 ft 17 kts 288°
2026-04-24 20:34 29.74072 106.66835 1379 ft 17 kts 287°
2026-04-24 20:34 29.74101 106.66719 1379 ft 6 kts 275°
2026-04-24 20:34 29.74073 106.66666 1379 ft 9 kts 212°
2026-04-24 20:35 29.74002 106.66633 1379 ft 12 kts 198°
2026-04-24 20:35 29.73914 106.66601 1379 ft 14 kts 197°
2026-04-24 20:35 29.73812 106.66566 1379 ft 16 kts 197°
2026-04-24 20:35 29.73704 106.66529 1379 ft 13 kts 197°
2026-04-24 20:36 29.73646 106.66482 1379 ft 8 kts 258°
2026-04-24 20:36 29.73660 106.66400 1379 ft 12 kts 283°
2026-04-24 20:36 29.73683 106.66303 1379 ft 11 kts 288°
2026-04-24 20:36 29.73743 106.66269 1379 ft 11 kts
2026-04-24 20:37 29.73823 106.66290 1379 ft 10 kts 19°
2026-04-24 20:37 29.73844 106.66349 1379 ft 6 kts 119°
2026-04-24 20:37 29.73830 106.66376 1379 ft 0 kts 120°
2026-04-24 20:37 29.73829 106.66379 1379 ft 0 kts 111°
2026-04-24 20:38 29.73828 106.66381 1379 ft 0 kts 112°